Skip Page Navigation
NASA JPL Caltech
NASA Logo - Jet Propulsion Laboratory + View the NASA Portal
+ Center for Near-Earth Object Studies
JPL Home Earth Solar System Stars & Galaxies Technology
JPL Solar System Dynamics
BODIES ORBITS EPHEMERIDES TOOLS PHYSICAL DATA DISCOVERY FAQ SITE MAP
IMPORTANT: The SSD Announcement email list is now available. Major changes are coming in the near future, including possible hostname and/or URL changes. To be notified of such changes, subscribe to this email list.

Please visit this page for more details.


JPL Small-Body Database Browser
Search: [ help ]  
52623 (1997 VY6)
Classification: Main-belt Asteroid          SPK-ID: 2052623
Ephemeris | Orbit Diagram | Orbital Elements | Mission Design | Physical Parameters | Discovery Circumstances | Close-Approach Data ]

[ show orbit diagram ]
Orbital Elements at Epoch 2458600.5 (2019-Apr-27.0) TDB
Reference: JPL 17 (heliocentric ecliptic J2000)
 Element Value Uncertainty (1-sigma)   Units 
e .2330839181463084 3.5277e-08  
a 2.772653590019309 1.4836e-08 au
q 2.12639262759518 9.8594e-08 au
i 1.036577733030242 4.1322e-06 deg
node 252.4474367913248 0.00029051 deg
peri 153.4789224025767 0.00029075 deg
M 239.2045574329238 1.3488e-05 deg
tp 2459166.335114057076
(2020-Nov-12.83511406)
6.5714e-05 TDB
period 1686.327205162849
4.62
1.3535e-05
3.706e-08
d
yr
n .2134817008809596 1.7134e-09 deg/d
Q 3.418914552443439 1.8294e-08 au
  Orbit Determination Parameters
   # obs. used (total)      700  
   data-arc span      9387 days (25.70 yr)  
   first obs. used      1992-09-22  
   last obs. used      2018-06-05  
   planetary ephem.      DE431  
   SB-pert. ephem.      SB431-N16  
   condition code      0  
   norm. resid. RMS      .58081  
   source      ORB  
   producer      Otto Matic  
   solution date      2018-Oct-04 01:02:53  

Additional Information
 Earth MOID = 1.1355 au 
 Jupiter MOID = 1.98353 au 
 T_jup = 3.296 
[ show covariance matrix ]

Ephemeris | Orbit Diagram | Orbital Elements | Mission Design | Physical Parameters | Discovery Circumstances | Close-Approach Data ]

Physical Parameter Table
Parameter Symbol Value Units Sigma Reference Notes
absolute magnitude H 15.2   n/a MPO439448  
diameter diameter 4.744 km 1.259 urn:nasa:pds:neowise_diameters_albedos::2.0[mainbelt] (http://adsabs.harvard.edu/abs/2016AJ....152...63N)  
geometric albedo albedo 0.060   0.036 urn:nasa:pds:neowise_diameters_albedos::2.0[mainbelt] (http://adsabs.harvard.edu/abs/2016AJ....152...63N)  

52623 (1997 VY6)          Discovered 1997-Nov-06 by Sato, N. at Chichibu
Reference: 20030216/Numbers.arcLast Updated: 2004-04-19

[ show close-approach data ]
Alternate Designations
 1997 VY6 = 1992 SP18 
Ephemeris | Orbit Diagram | Orbital Elements | Mission Design | Physical Parameters | Discovery Circumstances | Close-Approach Data ]
ABOUT SSD CREDITS/AWARDS PRIVACY/COPYRIGHT GLOSSARY LINKS
FirstGov 2020-Jan-17 13:18 UT
(server date/time)  
NASA Home Page
Site Manager:   Ryan S. Park
Webmaster  Alan B. Chamberlin